Weather reports worldwide

Advertisment
Ueckermünde, Germany (10193): temperature & dewpoint: 24.05.2020 23:00:00 - 30.05.2020 23:00:00 (CEST)Ueckermünde, Germany (10193): temperature 5cm & temperature -5cm: 24.05.2020 23:00:00 - 30.05.2020 23:00:00 (CEST)Ueckermünde, Germany (10193): temperature -20cm & temperature -100cm: 24.05.2020 23:00:00 - 30.05.2020 23:00:00 (CEST)Ueckermünde, Germany (10193): wind speed & gusts: 24.05.2020 23:00:00 - 30.05.2020 23:00:00 (CEST)Ueckermünde, Germany (10193): wind direction: 24.05.2020 23:00:00 - 30.05.2020 23:00:00 (CEST)Ueckermünde, Germany (10193): reduced air pressure: 24.05.2020 23:00:00 - 30.05.2020 23:00:00 (CEST)Ueckermünde, Germany (10193): visibility: 24.05.2020 23:00:00 - 30.05.2020 23:00:00 (CEST)Ueckermünde, Germany (10193): sunshine duration: 24.05.2020 23:00:00 - 30.05.2020 23:00:00 (CEST)Ueckermünde, Germany (10193): precipitation: 24.05.2020 23:00:00 - 30.05.2020 23:00:00 (CEST)
Date & Time tt [°C] td [°C] tt 5cm [°C] tt -5cm [°C] tt -20cm [°C] tt -100cm [°C] ff [km/h] ff [kn] fx [km/h] fx [kn] dd ppp [hPa] vv [km] sd [min] rr [mm]
30.05.2020 23:00:00 12,7 8,4 11,8 17,1 19,6 13,5 20 11 37 20 NE 1024,6 75 0 0,0
30.05.2020 22:00:00 12,8 8,4 12,0 18,1 20,0 13,5 20 11 36 19 NE 1024,6 66 0 0,0
30.05.2020 21:00:00 13,0 8,6 12,3 19,6 20,4 13,5 20 11 37 20 NE 1024,4 67 0 0,0
30.05.2020 20:00:00 13,5 8,2 13,6 21,8 20,5 13,5 22 12 41 22 NE 1024,7 66 44 0,0
30.05.2020 19:00:00 13,5 7,7 14,6 23,3 20,5 13,5 20 11 38 20 NE 1024,7 70 51 0,0
30.05.2020 18:00:00 14,3 7,3 18,0 25,0 20,4 13,4 23 13 42 23 NNE 1024,6 61 60 0,0
30.05.2020 17:00:00 14,1 7,7 17,6 25,7 20,0 13,4 24 13 43 23 NNE 1025,0 75 60 0,0
30.05.2020 16:00:00 15,0 6,3 19,3 26,3 19,6 13,4 31 17 44 24 NNE 1024,9 58 60 0,0
30.05.2020 15:00:00 15,0 6,4 20,3 26,1 19,1 13,4 26 14 41 22 NNE 1025,5 58 60 0,0
30.05.2020 14:00:00 14,4 6,3 18,9 24,6 18,7 13,4 25 13 42 23 NE 1026,1 49 37 0,0
30.05.2020 13:00:00 13,8 6,1 16,4 24,8 18,2 13,4 24 13 47 25 NNE 1026,4 54 53 0,0
30.05.2020 12:00:00 15,1 6,3 19,9 23,8 17,7 13,4 25 14 44 24 NNE 1026,6 42 60 0,0
30.05.2020 11:00:00 14,6 5,9 17,9 22,1 17,3 13,3 28 15 42 23 NNE 1026,5 46 55 0,0
30.05.2020 10:00:00 15,2 7,3 18,7 20,1 17,0 13,3 25 14 42 23 NNE 1026,5 75 39 0,0
30.05.2020 09:00:00 14,9 5,7 17,7 19,0 16,8 13,3 21 11 34 18 NE 1026,7 70 41 0,0
30.05.2020 08:00:00 14,0 6,8 15,9 16,3 16,9 13,3 16 8 25 13 NNE 1026,8 75 10 0,0
30.05.2020 07:00:00 13,4 6,6 14,2 15,0 17,1 13,3 13 7 26 14 N 1026,9 69 51 0,0
30.05.2020 06:00:00 12,9 5,9 12,1 14,4 17,4 13,3 14 7 24 13 NNE 1027,0 67 12 0,0
30.05.2020 05:00:00 12,6 6,1 11,8 14,5 17,7 13,2 11 6 22 12 NNE 1027,1 69 0 0,0
30.05.2020 04:00:00 12,5 6,7 11,4 15,0 18,0 13,2 15 8 25 14 NE 1027,4 75 0 0,0
30.05.2020 03:00:00 13,0 8,0 12,5 15,5 18,4 13,2 14 8 25 14 NNE 1027,4 75 0 0,0
30.05.2020 02:00:00 12,8 7,7 12,0 15,4 18,8 13,2 14 8 26 14 NNE 1027,6 75 0 0,0
30.05.2020 01:00:00 12,9 7,1 11,7 16,0 19,3 13,2 16 9 24 13 NNE 1027,6 75 0 0,0
30.05.2020 00:00:00 13,0 6,7 11,4 16,6 19,8 13,2 11 6 19 10 NNE 1027,5 75 0 0,0
29.05.2020 23:00:00 12,8 7,4 11,2 17,6 20,3 13,2 9 5 19 10 NNE 1027,6 75 0 0,0
29.05.2020 22:00:00 13,2 7,0 11,4 19,2 20,8 13,2 9 5 22 12 NE 1027,7 73 3 0,0
29.05.2020 21:00:00 13,6 6,8 12,6 21,5 21,2 13,1 13 7 26 14 NE 1027,6 75 60 0,0
29.05.2020 20:00:00 14,6 7,6 15,5 23,8 21,3 13,1 17 9 26 14 NNE 1027,7 65 60 0,0
29.05.2020 19:00:00 15,6 7,3 17,7 25,7 21,2 13,1 13 7 28 15 NNE 1027,9 75 60 0,0
29.05.2020 18:00:00 16,8 8,3 20,0 27,1 21,0 13,1 17 9 31 17 NNE 1027,9 67 60 0,0
29.05.2020 17:00:00 17,4 5,9 21,4 28,0 20,6 13,1 19 11 30 16 NNE 1028,1 53 60 0,0
29.05.2020 16:00:00 17,6 6,3 22,6 29,0 20,0 13,1 18 10 29 16 NNE 1028,5 45 60 0,0
29.05.2020 15:00:00 17,6 7,3 24,1 29,3 19,3 13,1 19 11 29 15 NNE 1028,9 75 60 0,0
29.05.2020 14:00:00 17,7 8,0 23,2 28,8 18,5 13,1 14 7 22 12 NE 1029,5 75 60 0,0
29.05.2020 13:00:00 17,5 8,4 22,8 27,1 17,7 13,1 14 7 24 13 NE 1030,2 37 54 0,0
29.05.2020 12:00:00 17,0 7,7 23,3 26,2 16,9 13,1 16 9 24 13 NE 1030,5 52 60 0,0
29.05.2020 11:00:00 16,9 7,2 22,7 23,7 16,2 13,0 11 6 18 10 NE 1030,8 67 60 0,0
29.05.2020 10:00:00 16,2 4,1 21,4 20,9 15,8 13,0 10 5 16 9 NW 1030,7 62 60 0,0
29.05.2020 09:00:00 14,9 9,0 19,7 18,2 15,5 13,0 5 3 11 6 NW 1030,7 55 60 0,0
29.05.2020 08:00:00 13,1 9,6 16,7 15,3 15,6 13,0 6 3 10 5 WNW 1030,7 46 60 0,0
29.05.2020 07:00:00 10,3 8,2 12,4 12,6 15,8 13,0 4 2 6 4 W 1031,0 34 60 0,0
29.05.2020 06:00:00 6,3 5,3 5,3 11,2 16,3 13,0 4 2 6 3 SSW 1030,8 32 29 0,0
29.05.2020 05:00:00 6,2 5,8 2,1 11,6 16,7 12,9 3 1 6 3 SSW 1031,0 22 0 0,0
29.05.2020 04:00:00 7,0 5,7 3,9 12,7 17,1 12,9 5 3 8 5 WSW 1031,0 41 0 0,0
29.05.2020 03:00:00 11,8 8,1 7,2 13,5 17,5 12,9 5 3 17 9 NNE 1031,1 63 0 0,0
29.05.2020 02:00:00 12,3 8,2 10,8 14,2 18,0 12,9 11 6 18 10 NNE 1031,1 62 0 0,0
29.05.2020 01:00:00 12,2 8,9 10,7 14,8 18,4 12,9 12 6 21 12 NNE 1031,1 75 0 0,0
29.05.2020 00:00:00 12,1 8,6 10,7 15,5 18,9 12,9 14 8 28 15 NNE 1031,1 75 0 0,0
28.05.2020 23:00:00 12,2 7,5 10,9 16,5 19,5 12,9 15 8 25 14 NNE 1031,0 75 0 0,0
28.05.2020 22:00:00 12,2 7,7 11,1 17,9 19,9 12,9 14 8 25 13 NNE 1031,0 73 0 0,0
28.05.2020 21:00:00 12,7 7,2 11,7 20,0 20,3 12,9 15 8 26 14 NNE 1030,7 63 58 0,0
28.05.2020 20:00:00 13,3 5,9 14,2 22,6 20,5 12,8 16 9 26 14 NNE 1030,5 59 60 0,0
28.05.2020 19:00:00 14,1 6,0 16,9 24,5 20,4 12,8 17 9 25 14 NNE 1030,5 61 60 0,0
28.05.2020 18:00:00 14,6 7,0 18,0 25,9 20,2 12,8 18 10 27 15 NNE 1030,7 75 60 0,0
28.05.2020 17:00:00 15,2 8,7 19,6 26,8 19,8 12,8 18 10 31 17 NNE 1030,7 75 60 0,0
28.05.2020 16:00:00 15,4 9,5 20,5 27,6 19,2 12,8 19 10 29 16 NNE 1030,7 52 60 0,0
28.05.2020 15:00:00 14,7 9,6 21,1 27,4 18,6 12,8 18 10 30 16 N 1030,9 30 51 0,0
28.05.2020 14:00:00 15,6 10,0 21,9 27,3 17,8 12,8 18 10 30 16 N 1030,7 45 60 0,0
28.05.2020 13:00:00 15,5 9,4 21,3 26,2 17,0 12,8 17 9 26 14 N 1030,4 48 60 0,0
28.05.2020 12:00:00 15,2 9,4 22,0 24,2 16,3 12,8 16 8 27 15 N 1030,4 39 60 0,0
28.05.2020 11:00:00 14,7 9,0 20,3 21,9 15,7 12,8 16 8 25 14 N 1030,3 35 60 0,0
28.05.2020 10:00:00 14,3 8,6 19,0 19,1 15,4 12,7 14 8 32 18 N 1030,2 41 47 0,0
28.05.2020 09:00:00 13,4 8,7 15,9 16,2 15,3 12,7 12 6 24 13 N 1030,1 49 29 0,0
28.05.2020 08:00:00 13,4 8,8 16,4 14,4 15,4 12,7 11 6 23 13 NNW 1029,9 34 37 0,0
28.05.2020 07:00:00 10,9 7,4 11,5 13,3 15,7 12,7 11 6 22 12 WNW 1029,7 45 49 0,0
28.05.2020 06:00:00 10,2 6,7 9,2 12,7 16,0 12,7 14 8 29 16 WNW 1029,5 44 0 0,0
28.05.2020 05:00:00 10,6 6,7 9,7 13,1 16,3 12,7 13 7 20 11 WNW 1029,5 49 0 0,0
28.05.2020 04:00:00 11,2 5,7 10,3 13,8 16,6 12,7 13 7 24 13 WNW 1029,6 55 0 0,0
28.05.2020 03:00:00 12,6 6,7 11,8 14,3 16,9 12,7 11 6 25 14 NW 1029,7 55 0 0,0
28.05.2020 02:00:00 12,7 6,7 11,9 14,9 17,2 12,6 10 5 21 11 NW 1030,0 58 0 0,0
28.05.2020 01:00:00 13,2 6,7 12,6 15,4 17,6 12,6 8 5 28 15 NW 1030,3 69 0 0,0
28.05.2020 00:00:00 13,6 6,2 12,9 16,0 17,9 12,6 12 6 32 17 NNW 1030,6 71 0 0,0
27.05.2020 23:00:00 14,0 5,9 13,5 16,9 18,3 12,6 17 9 34 19 N 1030,5 59 0 0,0
27.05.2020 22:00:00 14,9 9,4 14,8 17,9 18,6 12,6 13 7 29 15 NNW 1030,0 59 0 0,0
27.05.2020 21:00:00 15,7 9,6 15,5 19,0 18,8 12,6 11 6 27 15 NNW 1029,5 53 0 0,0
27.05.2020 20:00:00 16,2 10,7 16,1 20,5 19,0 12,6 16 9 28 15 N 1029,3 41 6 0,0
27.05.2020 19:00:00 17,1 10,9 18,4 21,8 19,1 12,6 14 8 24 13 N 1029,3 75 1 0,0
27.05.2020 18:00:00 17,8 10,4 18,1 22,7 19,1 12,6 12 7 23 13 N 1029,5 49 1 0,0
27.05.2020 17:00:00 19,1 10,0 20,6 24,9 18,8 12,6 6 4 13 7 N 1029,3 47 18 0,0
27.05.2020 16:00:00 20,6 8,6 27,0 25,4 18,4 12,6 5 3 11 6 NE 1029,7 60 22 0,0
27.05.2020 15:00:00 20,0 8,3 25,1 24,7 18,0 12,6 5 3 9 5 E 1030,5 75 12 0,0
27.05.2020 14:00:00 18,6 8,0 20,9 26,5 17,3 12,6 5 3 13 7 E 1031,2 26 20 0,0
27.05.2020 13:00:00 18,6 8,7 22,7 26,4 16,4 12,6 9 5 13 7 NNE 1031,8 55 32 0,0
27.05.2020 12:00:00 18,0 8,2 21,7 25,7 15,4 12,6 9 5 13 7 NE 1032,3 74 48 0,0
27.05.2020 11:00:00 17,7 8,1 22,7 23,6 14,6 12,5 9 5 12 7 NE 1032,8 56 60 0,0
27.05.2020 10:00:00 16,7 5,6 21,2 20,3 14,0 12,5 7 4 12 6 SW 1033,1 75 60 0,0
27.05.2020 09:00:00 15,1 6,3 18,3 16,7 13,7 12,5 8 4 12 7 SSW 1033,5 67 60 0,0
27.05.2020 08:00:00 11,9 7,0 14,1 13,4 13,7 12,5 7 4 10 5 SSW 1033,6 59 60 0,0
27.05.2020 07:00:00 8,2 6,4 9,1 10,4 14,0 12,5 4 2 8 4 SW 1033,9 28 57 0,0
27.05.2020 06:00:00 4,2 3,6 2,9 8,7 14,4 12,5 5 3 8 4 SW 1033,9 12 18 0,0
27.05.2020 05:00:00 3,7 3,3 0,6 9,1 14,9 12,5 5 3 8 4 SW 1033,9 13 0 0,0
27.05.2020 04:00:00 4,2 3,8 2,0 9,8 15,4 12,5 6 3 7 4 S 1034,1 10 0 0,0
27.05.2020 03:00:00 4,6 4,1 2,0 10,4 15,9 12,5 5 3 6 4 SSW 1034,3 4,7 0 0,0
27.05.2020 02:00:00 5,2 4,7 2,4 11,3 16,5 12,5 4 2 6 3 SSW 1034,7 18 0 0,0
27.05.2020 01:00:00 5,5 4,9 2,4 12,1 17,1 12,5 4 2 6 3 SSW 1034,7 4,7 0 0,0
27.05.2020 00:00:00 6,6 5,7 3,0 13,4 17,7 12,5 4 2 5 3 SSW 1034,8 2,4 0 0,0
26.05.2020 23:00:00 8,3 6,7 4,7 15,1 18,3 12,5 3 1 9 5 S 1035,0 37 0 0,0
26.05.2020 22:00:00 11,9 8,1 9,4 17,1 18,8 12,5 7 4 12 6 ENE 1035,1 59 0 0,0
26.05.2020 21:00:00 12,7 8,3 11,2 19,9 19,1 12,5 6 3 14 8 NNE 1034,9 56 53 0,0
26.05.2020 20:00:00 13,9 7,9 15,0 22,6 19,2 12,5 8 5 16 9 NE 1034,9 53 60 0,0
26.05.2020 19:00:00 14,3 8,4 16,4 24,7 19,1 12,5 12 6 19 10 NE 1035,0 64 60 0,0
26.05.2020 18:00:00 15,2 9,4 19,0 26,4 18,7 12,5 12 6 19 10 NE 1035,1 46 60 0,0
26.05.2020 17:00:00 15,2 9,2 20,0 27,3 18,1 12,5 14 8 20 11 NNE 1035,3 46 60 0,0
26.05.2020 16:00:00 15,8 9,1 20,5 28,1 17,3 12,5 14 8 20 11 NE 1035,3 51 60 0,0
26.05.2020 15:00:00 15,0 8,9 21,4 28,0 16,3 12,5 13 7 18 10 NNE 1035,4 48 60 0,0
26.05.2020 14:00:00 15,2 8,6 21,8 27,0 15,3 12,5 13 7 18 10 NNE 1035,5 64 60 0,0
26.05.2020 13:00:00 14,8 9,2 19,6 25,1 14,3 12,6 11 6 20 11 NE 1035,7 56 60 0,0
26.05.2020 12:00:00 14,1 8,9 19,2 22,4 13,4 12,6 13 7 19 10 NNE 1035,7 59 60 0,0
26.05.2020 11:00:00 13,4 9,5 18,1 19,4 12,8 12,6 10 5 16 8 NNE 1035,6 50 60 0,0
26.05.2020 10:00:00 12,3 9,1 16,1 16,5 12,3 12,6 8 4 14 8 NNE 1035,5 50 21 0,0
26.05.2020 09:00:00 11,2 8,2 13,9 14,5 12,0 12,6 5 3 14 7 N 1035,2 42 30 0,0
26.05.2020 08:00:00 10,6 9,1 10,8 11,7 11,9 12,6 5 3 15 8 N 1034,7 39 1 0,0
26.05.2020 07:00:00 9,8 9,1 10,1 10,2 11,9 12,6 10 5 16 9 NNE 1034,1 34 0 0,0
26.05.2020 06:00:00 10,0 9,7 9,9 8,5 12,1 12,6 8 4 16 9 NNE 1033,6 20 0 0,0
26.05.2020 05:00:00 5,6 5,6 4,7 7,5 12,4 12,6 3 2 6 3 SW 1033,0 0,1 0 0,0
26.05.2020 04:00:00 4,9 4,6 2,5 7,4 12,8 12,6 4 2 6 3 SSW 1032,7 0,6 0 0,0
26.05.2020 03:00:00 4,8 4,5 1,7 7,9 13,2 12,6 5 3 9 5 S 1032,6 0,7 0 0,0
26.05.2020 02:00:00 6,2 6,0 2,4 8,6 13,6 12,6 3 1 5 3 SW 1032,4 0,2 0 0,0
26.05.2020 01:00:00 8,0 7,8 3,2 9,4 14,0 12,6 0 0 8 4 N 1032,4 4,1 0 0,0
26.05.2020 00:00:00 8,5 7,9 4,4 10,3 14,4 12,6 4 2 8 5 WNW 1032,1 10 0 0,0
25.05.2020 23:00:00 10,1 8,2 6,9 11,4 14,7 12,6 4 2 13 7 N 1031,8 36 0 0,0
25.05.2020 22:00:00 11,8 8,7 9,8 12,7 15,0 12,6 7 4 16 8 N 1031,4 44 0 0,0
25.05.2020 21:00:00 12,5 8,7 11,2 14,5 15,2 12,6 8 4 18 10 N 1030,9 58 59 0,0
25.05.2020 20:00:00 13,6 8,2 14,0 16,3 15,1 12,6 12 7 21 11 NNE 1030,0 60 60 0,0
25.05.2020 19:00:00 14,0 8,5 14,9 17,2 15,0 12,6 11 6 22 12 N 1029,5 54 42 0,0
25.05.2020 18:00:00 14,3 9,4 15,2 18,2 14,7 12,6 12 7 21 12 N 1029,0 47 37 0,0
25.05.2020 17:00:00 13,9 9,7 15,2 18,4 14,4 12,6 13 7 21 11 N 1028,6 35 23 0,0
25.05.2020 16:00:00 14,2 11,1 17,0 17,6 14,1 12,6 10 6 16 9 N 1028,1 29 16 0,0
25.05.2020 15:00:00 12,1 10,5 13,2 15,9 13,8 12,6 7 4 25 14 NW 1027,7 23 1 0,4
25.05.2020 14:00:00 12,0 10,6 12,8 14,4 13,8 12,6 14 8 24 13 WNW 1027,1 31 0 0,6
25.05.2020 13:00:00 11,4 10,3 11,9 14,1 13,7 12,7 12 7 22 12 WNW 1026,7 4,6 0 0,2
25.05.2020 12:00:00 11,3 9,8 11,8 14,2 13,6 12,7 13 7 27 14 WNW 1026,2 8 0 0,3
25.05.2020 11:00:00 10,9 9,0 10,8 13,7 13,5 12,7 17 9 31 17 WNW 1025,5 8 0 0,2
25.05.2020 10:00:00 11,0 9,7 11,3 13,4 13,5 12,7 15 8 26 14 WNW 1025,1 15 0 0,4
25.05.2020 09:00:00 10,5 9,4 10,5 13,0 13,5 12,7 13 7 28 15 WNW 1024,3 12 0 0,8
25.05.2020 08:00:00 10,7 9,1 10,7 12,6 13,5 12,7 14 7 27 14 W 1023,6 42 0 0,4
25.05.2020 07:00:00 10,8 9,0 11,1 12,3 13,5 12,7 13 7 24 13 W 1023,2 34 19 0,0
25.05.2020 06:00:00 10,2 8,5 9,8 11,3 13,7 12,7 14 8 25 14 W 1022,8 26 0 0,0
25.05.2020 05:00:00 10,4 7,9 10,0 11,3 13,9 12,7 13 7 28 15 W 1022,6 36 0 0,0
25.05.2020 04:00:00 10,6 7,5 9,8 11,5 14,0 12,7 13 7 24 13 W 1022,1 41 0 0,1
25.05.2020 03:00:00 10,1 7,9 9,4 11,8 14,2 12,7 12 7 27 15 W 1022,2 27 0 0,1
25.05.2020 02:00:00 11,1 7,2 10,0 12,0 14,4 12,7 16 9 26 14 W 1022,2 14 0 0,0
25.05.2020 01:00:00 10,9 8,2 10,4 12,2 14,7 12,7 12 6 20 11 WSW 1022,0 43 0 0,0
25.05.2020 00:00:00 11,2 7,9 10,4 12,6 14,9 12,7 12 6 20 11 WSW 1021,9 49 0 0,0
24.05.2020 23:00:00 11,9 8,3 11,1 13,2 15,1 12,7 11 6 22 12 W 1022,2 68 0 0,0

tt = temperature
td = dewpoint
tt 5cm = temperature 5cm
tt -5cm = temperature -5cm
tt -20cm = temperature -20cm
tt -100cm = temperature -100cm
ff = wind speed
fx = gusts
dd = wind direction
ppp = reduced air pressure
vv = visibility
sd = sunshine duration
rr = precipitation

Next stations